Time,TemperatureF,DewpointF,PressureIn,WindDirection,WindDirectionDegrees,WindSpeedMPH,WindSpeedGustMPH,Humidity,HourlyPrecipIn,Conditions,Clouds,dailyrainin,SoftwareType,DateUTC
2013-03-23 00:03:00,40.8,38.7,30.11,North,355,0.0,0.0,92,0.00,,,0.00,LWC V1.00 B64,2013-03-23 07:03:00,
2013-03-23 00:08:00,40.6,38.5,30.11,North,355,0.0,0.0,92,0.00,,,0.00,LWC V1.00 B64,2013-03-23 07:08:00,
2013-03-23 00:13:00,40.4,38.5,30.12,North,355,0.0,0.0,93,0.00,,,0.00,LWC V1.00 B64,2013-03-23 07:13:00,
2013-03-23 00:19:00,40.2,38.1,30.11,North,355,0.0,0.0,92,0.00,,,0.00,LWC V1.00 B64,2013-03-23 07:19:00,
2013-03-23 00:24:00,40.2,38.3,30.11,North,355,0.0,0.0,93,0.00,,,0.00,LWC V1.00 B64,2013-03-23 07:24:00,
2013-03-23 00:29:00,40.1,38.2,30.12,North,355,0.0,0.0,93,0.00,,,0.00,LWC V1.00 B64,2013-03-23 07:29:00,
2013-03-23 00:34:00,40.0,38.1,30.12,North,355,0.0,0.0,93,0.00,,,0.00,LWC V1.00 B64,2013-03-23 07:34:00,
2013-03-23 00:39:00,39.8,37.9,30.12,North,355,0.0,0.0,93,0.00,,,0.00,LWC V1.00 B64,2013-03-23 07:39:00,
2013-03-23 00:44:00,39.6,37.7,30.12,North,355,0.0,0.0,93,0.00,,,0.00,LWC V1.00 B64,2013-03-23 07:44:00,
2013-03-23 00:49:00,39.5,37.6,30.12,North,355,0.0,0.0,93,0.00,,,0.00,LWC V1.00 B64,2013-03-23 07:49:00,
2013-03-23 00:54:00,39.3,37.4,30.12,North,355,0.0,0.0,93,0.00,,,0.00,LWC V1.00 B64,2013-03-23 07:54:00,
2013-03-23 00:59:00,39.1,37.2,30.11,North,355,0.0,0.0,93,0.00,,,0.00,LWC V1.00 B64,2013-03-23 07:59:00,
2013-03-23 01:04:00,39.0,37.2,30.11,North,355,0.0,0.0,93,0.00,,,0.00,LWC V1.00 B64,2013-03-23 08:04:00,
2013-03-23 01:09:00,38.9,37.1,30.11,North,355,0.0,0.0,93,0.00,,,0.00,LWC V1.00 B64,2013-03-23 08:09:00,
2013-03-23 01:14:00,38.7,36.9,30.11,North,355,0.0,0.0,93,0.00,,,0.00,LWC V1.00 B64,2013-03-23 08:14:00,
2013-03-23 01:19:00,38.6,36.8,30.12,North,355,0.0,0.0,93,0.00,,,0.00,LWC V1.00 B64,2013-03-23 08:19:00,
2013-03-23 01:24:00,38.4,36.6,30.11,North,355,0.0,0.0,93,0.00,,,0.00,LWC V1.00 B64,2013-03-23 08:24:00,
2013-03-23 01:29:00,38.3,36.5,30.11,North,355,0.0,0.0,93,0.00,,,0.00,LWC V1.00 B64,2013-03-23 08:29:00,
2013-03-23 01:34:00,38.3,36.7,30.11,North,355,0.0,0.0,94,0.00,,,0.00,LWC V1.00 B64,2013-03-23 08:34:00,
2013-03-23 01:39:00,38.2,36.6,30.12,North,355,0.0,0.0,94,0.00,,,0.00,LWC V1.00 B64,2013-03-23 08:39:00,
2013-03-23 01:45:00,38.1,36.5,30.12,North,355,0.0,0.0,94,0.00,,,0.00,LWC V1.00 B64,2013-03-23 08:45:00,
2013-03-23 01:50:00,38.1,36.5,30.12,North,355,0.0,0.0,94,0.00,,,0.00,LWC V1.00 B64,2013-03-23 08:50:00,
2013-03-23 01:55:00,38.2,36.6,30.12,North,355,0.0,0.0,94,0.00,,,0.00,LWC V1.00 B64,2013-03-23 08:55:00,
2013-03-23 02:00:00,38.2,36.6,30.12,North,355,0.0,0.0,94,0.00,,,0.00,LWC V1.00 B64,2013-03-23 09:00:00,
2013-03-23 02:05:00,38.2,36.6,30.12,North,355,0.0,0.0,94,0.00,,,0.00,LWC V1.00 B64,2013-03-23 09:05:00,
2013-03-23 02:10:00,38.2,36.6,30.12,North,355,0.0,0.0,94,0.00,,,0.00,LWC V1.00 B64,2013-03-23 09:10:00,
2013-03-23 02:15:00,38.1,36.5,30.12,North,355,0.0,0.0,94,0.00,,,0.00,LWC V1.00 B64,2013-03-23 09:15:00,
2013-03-23 02:20:00,38.0,36.4,30.12,North,355,0.0,0.0,94,0.00,,,0.00,LWC V1.00 B64,2013-03-23 09:20:00,
2013-03-23 02:25:00,37.9,36.3,30.12,North,355,0.0,0.0,94,0.00,,,0.00,LWC V1.00 B64,2013-03-23 09:25:00,
2013-03-23 02:30:00,37.8,36.2,30.12,North,355,0.0,0.0,94,0.00,,,0.00,LWC V1.00 B64,2013-03-23 09:30:00,
2013-03-23 02:35:00,37.8,36.2,30.12,North,355,0.0,0.0,94,0.00,,,0.00,LWC V1.00 B64,2013-03-23 09:35:00,
2013-03-23 02:40:00,37.7,36.1,30.12,North,355,0.0,0.0,94,0.00,,,0.00,LWC V1.00 B64,2013-03-23 09:40:00,
2013-03-23 02:45:00,37.7,36.1,30.11,North,355,0.0,0.0,94,0.00,,,0.00,LWC V1.00 B64,2013-03-23 09:45:00,
2013-03-23 02:50:00,37.8,36.5,30.11,North,355,0.0,0.0,95,0.00,,,0.00,LWC V1.00 B64,2013-03-23 09:50:00,
2013-03-23 02:55:00,37.8,36.2,30.11,North,355,0.0,1.0,94,0.00,,,0.00,LWC V1.00 B64,2013-03-23 09:55:00,
2013-03-23 03:00:00,37.6,36.0,30.11,North,355,0.0,0.0,94,0.00,,,0.00,LWC V1.00 B64,2013-03-23 10:00:00,
2013-03-23 03:05:00,37.4,35.8,30.12,North,355,0.0,0.0,94,0.00,,,0.00,LWC V1.00 B64,2013-03-23 10:05:00,
2013-03-23 03:10:00,37.3,35.7,30.12,North,355,0.0,0.0,94,0.00,,,0.00,LWC V1.00 B64,2013-03-23 10:10:00,
2013-03-23 03:15:00,37.2,35.6,30.12,North,355,0.0,0.0,94,0.00,,,0.00,LWC V1.00 B64,2013-03-23 10:15:00,
2013-03-23 03:20:00,37.1,35.5,30.12,North,355,0.0,0.0,94,0.00,,,0.00,LWC V1.00 B64,2013-03-23 10:20:00,
2013-03-23 03:25:00,37.0,35.4,30.11,North,355,0.0,1.0,94,0.00,,,0.00,LWC V1.00 B64,2013-03-23 10:25:00,
2013-03-23 03:31:00,36.8,35.2,30.12,North,355,0.0,0.0,94,0.00,,,0.00,LWC V1.00 B64,2013-03-23 10:31:00,
2013-03-23 03:37:00,36.6,35.0,30.12,North,355,0.0,0.0,94,0.00,,,0.00,LWC V1.00 B64,2013-03-23 10:37:00,
2013-03-23 03:42:00,36.5,34.9,30.11,North,355,0.0,0.0,94,0.00,,,0.00,LWC V1.00 B64,2013-03-23 10:42:00,
2013-03-23 03:48:00,36.4,34.8,30.12,North,355,0.0,0.0,94,0.00,,,0.00,LWC V1.00 B64,2013-03-23 10:48:00,
2013-03-23 03:53:00,36.3,35.0,30.11,North,355,0.0,0.0,95,0.00,,,0.00,LWC V1.00 B64,2013-03-23 10:53:00,
2013-03-23 03:58:00,36.4,35.1,30.12,North,355,0.0,0.0,95,0.00,,,0.00,LWC V1.00 B64,2013-03-23 10:58:00,
2013-03-23 04:03:00,36.5,35.2,30.12,North,355,0.0,0.0,95,0.00,,,0.00,LWC V1.00 B64,2013-03-23 11:03:00,
2013-03-23 04:08:00,36.4,35.1,30.11,North,355,0.0,0.0,95,0.00,,,0.00,LWC V1.00 B64,2013-03-23 11:08:00,
2013-03-23 04:14:00,36.3,35.0,30.11,North,355,0.0,0.0,95,0.00,,,0.00,LWC V1.00 B64,2013-03-23 11:14:00,
2013-03-23 04:19:00,36.2,34.9,30.11,North,355,0.0,0.0,95,0.00,,,0.00,LWC V1.00 B64,2013-03-23 11:19:00,
2013-03-23 04:24:00,36.1,34.8,30.11,North,355,0.0,0.0,95,0.00,,,0.00,LWC V1.00 B64,2013-03-23 11:24:00,
2013-03-23 04:29:00,36.1,34.8,30.11,North,355,0.0,0.0,95,0.00,,,0.00,LWC V1.00 B64,2013-03-23 11:29:00,
2013-03-23 04:34:00,36.1,34.8,30.11,North,355,0.0,0.0,95,0.00,,,0.00,LWC V1.00 B64,2013-03-23 11:34:00,
2013-03-23 04:39:00,36.1,34.8,30.11,North,355,0.0,0.0,95,0.00,,,0.00,LWC V1.00 B64,2013-03-23 11:39:00,
2013-03-23 04:44:00,36.1,34.8,30.11,North,355,0.0,0.0,95,0.00,,,0.00,LWC V1.00 B64,2013-03-23 11:44:00,
2013-03-23 04:49:00,36.1,34.8,30.11,North,355,0.0,0.0,95,0.00,,,0.01,LWC V1.00 B64,2013-03-23 11:49:00,
2013-03-23 04:54:00,36.1,34.8,30.11,North,355,0.0,0.0,95,0.00,,,0.01,LWC V1.00 B64,2013-03-23 11:54:00,
2013-03-23 04:59:00,35.9,34.6,30.11,North,355,0.0,0.0,95,0.00,,,0.01,LWC V1.00 B64,2013-03-23 11:59:00,
2013-03-23 05:04:00,35.7,34.4,30.11,North,355,0.0,0.0,95,0.00,,,0.01,LWC V1.00 B64,2013-03-23 12:04:00,
2013-03-23 05:09:00,35.7,34.4,30.11,North,355,0.0,0.0,95,0.00,,,0.01,LWC V1.00 B64,2013-03-23 12:09:00,
2013-03-23 05:14:00,35.7,34.4,30.11,North,355,0.0,0.0,95,0.00,,,0.01,LWC V1.00 B64,2013-03-23 12:14:00,
2013-03-23 05:20:00,35.7,34.4,30.11,North,355,0.0,0.0,95,0.00,,,0.01,LWC V1.00 B64,2013-03-23 12:20:00,
2013-03-23 05:25:00,35.6,34.3,30.11,North,355,0.0,0.0,95,0.00,,,0.01,LWC V1.00 B64,2013-03-23 12:25:00,
2013-03-23 05:30:00,35.5,34.2,30.11,North,355,0.0,0.0,95,0.00,,,0.01,LWC V1.00 B64,2013-03-23 12:30:00,
2013-03-23 05:35:00,35.4,34.1,30.11,North,355,0.0,0.0,95,0.00,,,0.01,LWC V1.00 B64,2013-03-23 12:35:00,
2013-03-23 05:40:00,35.5,34.2,30.12,North,355,0.0,0.0,95,0.00,,,0.01,LWC V1.00 B64,2013-03-23 12:40:00,
2013-03-23 05:45:00,35.6,34.3,30.12,North,355,0.0,0.0,95,0.00,,,0.01,LWC V1.00 B64,2013-03-23 12:45:00,
2013-03-23 05:50:00,35.5,34.2,30.12,North,355,0.0,0.0,95,0.00,,,0.01,LWC V1.00 B64,2013-03-23 12:50:00,
2013-03-23 05:55:00,35.5,34.2,30.12,North,355,0.0,0.0,95,0.00,,,0.01,LWC V1.00 B64,2013-03-23 12:55:00,
2013-03-23 06:01:00,35.4,34.1,30.12,North,355,0.0,0.0,95,0.00,,,0.01,LWC V1.00 B64,2013-03-23 13:01:00,
2013-03-23 06:07:00,35.5,34.2,30.11,North,355,0.0,0.0,95,0.00,,,0.01,LWC V1.00 B64,2013-03-23 13:07:00,
2013-03-23 06:12:00,35.5,34.2,30.12,North,355,0.0,0.0,95,0.00,,,0.01,LWC V1.00 B64,2013-03-23 13:12:00,
2013-03-23 06:18:00,35.3,34.0,30.12,North,355,0.0,1.0,95,0.00,,,0.01,LWC V1.00 B64,2013-03-23 13:18:00,
2013-03-23 06:23:00,35.0,33.7,30.12,North,355,0.0,0.0,95,0.00,,,0.01,LWC V1.00 B64,2013-03-23 13:23:00,
2013-03-23 06:28:00,34.8,33.5,30.12,North,355,0.0,0.0,95,0.00,,,0.01,LWC V1.00 B64,2013-03-23 13:28:00,
2013-03-23 06:33:00,34.7,33.4,30.12,North,355,0.0,0.0,95,0.00,,,0.01,LWC V1.00 B64,2013-03-23 13:33:00,
2013-03-23 06:38:00,34.8,33.5,30.12,North,355,0.0,0.0,95,0.00,,,0.01,LWC V1.00 B64,2013-03-23 13:38:00,
2013-03-23 06:43:00,34.9,33.9,30.12,North,355,0.0,0.0,96,0.00,,,0.01,LWC V1.00 B64,2013-03-23 13:43:00,
2013-03-23 06:49:00,35.1,34.1,30.12,North,355,0.0,0.0,96,0.00,,,0.01,LWC V1.00 B64,2013-03-23 13:49:00,
2013-03-23 06:55:00,35.1,34.1,30.13,North,355,0.0,0.0,96,0.00,,,0.01,LWC V1.00 B64,2013-03-23 13:55:00,
2013-03-23 07:01:00,35.0,33.7,30.14,North,355,0.0,0.0,95,0.00,,,0.01,LWC V1.00 B64,2013-03-23 14:01:00,
2013-03-23 07:06:00,35.0,33.7,30.14,North,355,0.0,1.0,95,0.00,,,0.01,LWC V1.00 B64,2013-03-23 14:06:00,
2013-03-23 07:11:00,34.8,33.5,30.14,North,355,0.0,0.0,95,0.00,,,0.01,LWC V1.00 B64,2013-03-23 14:11:00,
2013-03-23 07:17:00,34.6,33.3,30.14,North,355,0.0,1.0,95,0.00,,,0.01,LWC V1.00 B64,2013-03-23 14:17:00,
2013-03-23 07:22:00,34.8,33.8,30.14,North,355,0.0,1.0,96,0.00,,,0.01,LWC V1.00 B64,2013-03-23 14:22:00,
2013-03-23 07:27:00,35.0,34.0,30.14,North,355,0.0,1.0,96,0.00,,,0.01,LWC V1.00 B64,2013-03-23 14:27:00,
2013-03-23 07:33:00,35.1,34.1,30.14,North,355,0.0,0.0,96,0.00,,,0.01,LWC V1.00 B64,2013-03-23 14:33:00,
2013-03-23 07:38:00,35.0,33.7,30.14,North,355,0.0,0.0,95,0.00,,,0.01,LWC V1.00 B64,2013-03-23 14:38:00,
2013-03-23 07:43:00,35.1,34.1,30.14,North,355,0.0,0.0,96,0.00,,,0.01,LWC V1.00 B64,2013-03-23 14:43:00,
2013-03-23 07:48:00,35.1,33.8,30.15,North,355,0.0,0.0,95,0.00,,,0.01,LWC V1.00 B64,2013-03-23 14:48:00,
2013-03-23 07:53:00,35.0,33.7,30.15,North,355,0.0,0.0,95,0.00,,,0.01,LWC V1.00 B64,2013-03-23 14:53:00,
2013-03-23 07:58:00,34.9,33.9,30.15,North,355,0.0,0.0,96,0.00,,,0.01,LWC V1.00 B64,2013-03-23 14:58:00,
2013-03-23 08:03:00,34.9,33.9,30.16,North,355,0.0,0.0,96,0.00,,,0.01,LWC V1.00 B64,2013-03-23 15:03:00,
2013-03-23 08:08:00,35.0,34.0,30.16,North,355,0.0,0.0,96,0.00,,,0.01,LWC V1.00 B64,2013-03-23 15:08:00,
2013-03-23 08:13:00,35.2,34.2,30.16,North,355,0.0,0.0,96,0.00,,,0.01,LWC V1.00 B64,2013-03-23 15:13:00,
2013-03-23 08:18:00,35.6,34.6,30.17,North,355,0.0,0.0,96,0.00,,,0.01,LWC V1.00 B64,2013-03-23 15:18:00,
2013-03-23 08:23:00,36.1,35.1,30.16,North,355,0.0,0.0,96,0.00,,,0.01,LWC V1.00 B64,2013-03-23 15:23:00,
2013-03-23 08:28:00,36.6,35.6,30.16,North,355,0.0,1.0,96,0.00,,,0.01,LWC V1.00 B64,2013-03-23 15:28:00,
2013-03-23 08:33:00,37.0,36.0,30.16,North,355,0.0,0.0,96,0.00,,,0.01,LWC V1.00 B64,2013-03-23 15:33:00,
2013-03-23 08:38:00,37.6,36.6,30.16,North,355,0.0,1.0,96,0.00,,,0.01,LWC V1.00 B64,2013-03-23 15:38:00,
2013-03-23 08:43:00,38.3,37.5,30.16,North,355,0.0,1.0,97,0.00,,,0.01,LWC V1.00 B64,2013-03-23 15:43:00,
2013-03-23 08:48:00,39.3,38.5,30.15,North,355,0.0,0.0,97,0.00,,,0.01,LWC V1.00 B64,2013-03-23 15:48:00,
2013-03-23 08:53:00,40.4,39.6,30.15,North,355,0.0,0.0,97,0.00,,,0.01,LWC V1.00 B64,2013-03-23 15:53:00,
2013-03-23 08:58:00,41.4,40.6,30.15,North,355,0.0,2.0,97,0.00,,,0.01,LWC V1.00 B64,2013-03-23 15:58:00,
2013-03-23 09:03:00,42.2,41.4,30.15,North,355,0.0,0.0,97,0.00,,,0.01,LWC V1.00 B64,2013-03-23 16:03:00,
2013-03-23 09:08:00,42.6,41.8,30.15,North,355,0.0,0.0,97,0.00,,,0.01,LWC V1.00 B64,2013-03-23 16:08:00,
2013-03-23 09:13:00,42.9,42.1,30.15,North,355,0.0,1.0,97,0.00,,,0.01,LWC V1.00 B64,2013-03-23 16:13:00,
2013-03-23 09:18:00,43.5,42.7,30.15,North,355,0.0,1.0,97,0.00,,,0.01,LWC V1.00 B64,2013-03-23 16:18:00,
2013-03-23 09:23:00,44.2,43.4,30.15,North,355,0.0,0.0,97,0.00,,,0.01,LWC V1.00 B64,2013-03-23 16:23:00,
2013-03-23 09:28:00,44.5,43.4,30.15,North,355,0.0,0.0,96,0.00,,,0.01,LWC V1.00 B64,2013-03-23 16:28:00,
2013-03-23 09:33:00,44.8,43.7,30.14,North,355,0.0,0.0,96,0.00,,,0.01,LWC V1.00 B64,2013-03-23 16:33:00,
2013-03-23 09:38:00,44.9,43.8,30.14,North,355,0.0,1.0,96,0.00,,,0.01,LWC V1.00 B64,2013-03-23 16:38:00,
2013-03-23 09:43:00,45.4,44.3,30.15,North,355,0.0,1.0,96,0.00,,,0.01,LWC V1.00 B64,2013-03-23 16:43:00,
2013-03-23 09:48:00,45.8,44.7,30.15,North,355,0.0,1.0,96,0.00,,,0.01,LWC V1.00 B64,2013-03-23 16:48:00,
2013-03-23 09:54:00,46.5,45.4,30.15,North,355,0.0,1.0,96,0.00,,,0.01,LWC V1.00 B64,2013-03-23 16:54:00,
2013-03-23 09:59:00,47.3,46.2,30.15,North,355,0.0,1.0,96,0.00,,,0.01,LWC V1.00 B64,2013-03-23 16:59:00,
2013-03-23 10:04:00,48.0,46.9,30.15,North,355,0.0,1.0,96,0.00,,,0.01,LWC V1.00 B64,2013-03-23 17:04:00,
2013-03-23 10:10:00,48.9,47.5,30.15,North,355,0.0,1.0,95,0.00,,,0.01,LWC V1.00 B64,2013-03-23 17:10:00,
2013-03-23 10:16:00,49.6,47.9,30.15,North,355,0.0,1.0,94,0.00,,,0.01,LWC V1.00 B64,2013-03-23 17:16:00,
2013-03-23 10:21:00,50.2,48.0,30.15,North,355,0.0,1.0,92,0.00,,,0.01,LWC V1.00 B64,2013-03-23 17:21:00,
2013-03-23 10:26:00,50.5,46.8,30.15,North,355,0.0,1.0,87,0.00,,,0.01,LWC V1.00 B64,2013-03-23 17:26:00,
2013-03-23 10:31:00,51.3,46.9,30.15,North,355,0.0,0.0,85,0.00,,,0.01,LWC V1.00 B64,2013-03-23 17:31:00,
2013-03-23 10:36:00,52.6,48.2,30.15,North,355,1.0,1.0,85,0.00,,,0.01,LWC V1.00 B64,2013-03-23 17:36:00,
2013-03-23 10:41:00,53.9,47.9,30.15,North,355,1.0,1.0,80,0.00,,,0.01,LWC V1.00 B64,2013-03-23 17:41:00,
2013-03-23 10:46:00,55.0,47.2,30.15,North,355,0.0,2.0,75,0.00,,,0.01,LWC V1.00 B64,2013-03-23 17:46:00,
2013-03-23 10:51:00,55.6,46.7,30.14,North,355,2.0,2.0,72,0.00,,,0.01,LWC V1.00 B64,2013-03-23 17:51:00,
2013-03-23 10:56:00,56.5,46.8,30.14,North,355,0.0,2.0,70,0.00,,,0.01,LWC V1.00 B64,2013-03-23 17:56:00,
2013-03-23 11:01:00,57.2,46.7,30.14,North,355,0.0,2.0,68,0.00,,,0.01,LWC V1.00 B64,2013-03-23 18:01:00,
2013-03-23 11:07:00,58.6,46.9,30.14,NNW,347,3.0,3.0,65,0.00,,,0.01,LWC V1.00 B64,2013-03-23 18:07:00,
2013-03-23 11:13:00,59.3,47.1,30.14,NNW,345,0.0,2.0,64,0.00,,,0.01,LWC V1.00 B64,2013-03-23 18:13:00,
2013-03-23 11:18:00,59.5,46.0,30.13,NNW,345,1.0,2.0,61,0.00,,,0.01,LWC V1.00 B64,2013-03-23 18:18:00,
2013-03-23 11:23:00,59.5,45.2,30.13,NNW,345,0.0,3.0,59,0.00,,,0.01,LWC V1.00 B64,2013-03-23 18:23:00,
2013-03-23 11:28:00,59.4,46.8,30.13,NNW,344,3.0,5.0,63,0.00,,,0.01,LWC V1.00 B64,2013-03-23 18:28:00,
2013-03-23 11:33:00,58.9,46.3,30.13,NNW,344,1.0,4.0,63,0.00,,,0.01,LWC V1.00 B64,2013-03-23 18:33:00,
2013-03-23 11:38:00,58.7,45.3,30.14,NNW,336,3.0,5.0,61,0.00,,,0.01,LWC V1.00 B64,2013-03-23 18:38:00,
2013-03-23 11:43:00,58.7,45.3,30.14,NNW,344,3.0,4.0,61,0.00,,,0.01,LWC V1.00 B64,2013-03-23 18:43:00,
2013-03-23 11:48:00,58.8,44.9,30.13,NNW,346,3.0,5.0,60,0.00,,,0.01,LWC V1.00 B64,2013-03-23 18:48:00,
2013-03-23 11:53:00,59.1,44.3,30.13,NNW,344,0.0,3.0,58,0.00,,,0.01,LWC V1.00 B64,2013-03-23 18:53:00,
2013-03-23 11:58:00,59.3,43.6,30.13,NNW,340,3.0,6.0,56,0.00,,,0.01,LWC V1.00 B64,2013-03-23 18:58:00,
2013-03-23 12:03:00,59.5,42.8,30.13,NNW,341,4.0,6.0,54,0.00,,,0.01,LWC V1.00 B64,2013-03-23 19:03:00,
2013-03-23 12:08:00,59.8,43.6,30.13,NNW,344,6.0,6.0,55,0.00,,,0.01,LWC V1.00 B64,2013-03-23 19:08:00,
2013-03-23 12:14:00,60.0,42.8,30.13,NNW,342,0.0,5.0,53,0.00,,,0.01,LWC V1.00 B64,2013-03-23 19:14:00,
2013-03-23 12:19:00,60.5,44.7,30.13,NNW,343,4.0,6.0,56,0.00,,,0.01,LWC V1.00 B64,2013-03-23 19:19:00,
2013-03-23 12:24:00,60.5,45.6,30.13,NNW,340,5.0,7.0,58,0.00,,,0.01,LWC V1.00 B64,2013-03-23 19:24:00,
2013-03-23 12:29:00,60.8,47.7,30.12,North,5,7.0,7.0,62,0.00,,,0.01,LWC V1.00 B64,2013-03-23 19:29:00,
2013-03-23 12:34:00,60.8,48.5,30.12,NNW,345,4.0,9.0,64,0.00,,,0.01,LWC V1.00 B64,2013-03-23 19:34:00,
2013-03-23 12:40:00,61.0,49.1,30.12,NNW,334,6.0,11.0,65,0.00,,,0.01,LWC V1.00 B64,2013-03-23 19:40:00,
2013-03-23 12:45:00,60.7,48.4,30.12,NNW,340,3.0,10.0,64,0.00,,,0.01,LWC V1.00 B64,2013-03-23 19:45:00,
2013-03-23 12:51:00,60.5,48.7,30.11,North,0,7.0,9.0,65,0.00,,,0.01,LWC V1.00 B64,2013-03-23 19:51:00,
2013-03-23 12:56:00,60.7,48.4,30.11,North,355,6.0,9.0,64,0.00,,,0.01,LWC V1.00 B64,2013-03-23 19:56:00,
2013-03-23 13:01:00,60.6,47.9,30.11,North,350,4.0,9.0,63,0.00,,,0.01,LWC V1.00 B64,2013-03-23 20:01:00,
2013-03-23 13:07:00,61.0,48.7,30.11,NNW,338,3.0,5.0,64,0.00,,,0.01,LWC V1.00 B64,2013-03-23 20:07:00,
2013-03-23 13:12:00,61.3,47.7,30.11,NNW,348,6.0,10.0,61,0.00,,,0.01,LWC V1.00 B64,2013-03-23 20:12:00,
2013-03-23 13:18:00,61.6,48.4,30.11,North,351,3.0,9.0,62,0.00,,,0.01,LWC V1.00 B64,2013-03-23 20:18:00,
2013-03-23 13:23:00,61.6,47.6,30.10,NNW,345,10.0,10.0,60,0.00,,,0.01,LWC V1.00 B64,2013-03-23 20:23:00,
2013-03-23 13:28:00,61.9,49.2,30.10,North,350,9.0,11.0,63,0.00,,,0.01,LWC V1.00 B64,2013-03-23 20:28:00,
2013-03-23 13:34:00,61.4,49.1,30.10,North,11,6.0,7.0,64,0.00,,,0.01,LWC V1.00 B64,2013-03-23 20:34:00,
2013-03-23 13:39:00,61.9,50.0,30.10,NNW,346,9.0,11.0,65,0.00,,,0.01,LWC V1.00 B64,2013-03-23 20:39:00,
2013-03-23 13:44:00,61.7,50.2,30.10,NNW,344,5.0,10.0,66,0.00,,,0.01,LWC V1.00 B64,2013-03-23 20:44:00,
2013-03-23 13:50:00,61.5,50.0,30.11,NW,325,7.0,12.0,66,0.00,,,0.01,LWC V1.00 B64,2013-03-23 20:50:00,
2013-03-23 13:55:00,61.6,50.5,30.11,NNE,13,3.0,10.0,67,0.00,,,0.01,LWC V1.00 B64,2013-03-23 20:55:00,
2013-03-23 14:00:00,61.3,49.8,30.10,North,0,5.0,12.0,66,0.00,,,0.01,LWC V1.00 B64,2013-03-23 21:00:00,
2013-03-23 14:06:00,60.7,48.9,30.10,NNW,348,5.0,9.0,65,0.00,,,0.01,LWC V1.00 B64,2013-03-23 21:06:00,
2013-03-23 14:11:00,59.6,48.6,30.10,NNW,333,10.0,11.0,67,0.00,,,0.01,LWC V1.00 B64,2013-03-23 21:11:00,
2013-03-23 14:16:00,59.1,48.5,30.11,North,355,3.0,10.0,68,0.00,,,0.01,LWC V1.00 B64,2013-03-23 21:16:00,
2013-03-23 14:21:00,57.9,47.4,30.11,NW,314,8.0,9.0,68,0.00,,,0.01,LWC V1.00 B64,2013-03-23 21:21:00,
2013-03-23 14:26:00,56.7,46.3,30.10,North,5,7.0,11.0,68,0.00,,,0.01,LWC V1.00 B64,2013-03-23 21:26:00,
2013-03-23 14:32:00,55.5,46.2,30.10,North,355,7.0,15.0,71,0.00,,,0.01,LWC V1.00 B64,2013-03-23 21:32:00,
2013-03-23 14:37:00,54.9,46.4,30.11,NNE,22,8.0,17.0,73,0.00,,,0.01,LWC V1.00 B64,2013-03-23 21:37:00,
2013-03-23 14:42:00,54.8,46.3,30.11,North,0,5.0,15.0,73,0.00,,,0.01,LWC V1.00 B64,2013-03-23 21:42:00,
2013-03-23 14:47:00,55.0,46.5,30.11,NNW,331,11.0,17.0,73,0.00,,,0.01,LWC V1.00 B64,2013-03-23 21:47:00,
2013-03-23 14:52:00,54.7,45.9,30.10,NNW,340,8.0,14.0,72,0.00,,,0.01,LWC V1.00 B64,2013-03-23 21:52:00,
2013-03-23 14:57:00,54.8,46.3,30.10,North,11,7.0,15.0,73,0.00,,,0.01,LWC V1.00 B64,2013-03-23 21:57:00,
2013-03-23 15:02:00,55.4,47.6,30.10,North,0,5.0,11.0,75,0.00,,,0.01,LWC V1.00 B64,2013-03-23 22:02:00,
2013-03-23 15:07:00,55.9,47.4,30.09,North,0,6.0,13.0,73,0.00,,,0.01,LWC V1.00 B64,2013-03-23 22:07:00,
2013-03-23 15:12:00,55.9,47.0,30.09,North,5,4.0,12.0,72,0.00,,,0.01,LWC V1.00 B64,2013-03-23 22:12:00,
2013-03-23 15:18:00,56.1,46.8,30.09,North,0,6.0,13.0,71,0.00,,,0.01,LWC V1.00 B64,2013-03-23 22:18:00,
2013-03-23 15:23:00,56.2,46.5,30.10,North,355,6.0,10.0,70,0.00,,,0.01,LWC V1.00 B64,2013-03-23 22:23:00,
2013-03-23 15:28:00,56.4,46.0,30.09,North,0,11.0,14.0,68,0.00,,,0.01,LWC V1.00 B64,2013-03-23 22:28:00,
2013-03-23 15:33:00,56.6,45.8,30.09,NNW,331,7.0,13.0,67,0.00,,,0.01,LWC V1.00 B64,2013-03-23 22:33:00,
2013-03-23 15:38:00,56.9,46.1,30.08,NNW,341,4.0,12.0,67,0.00,,,0.01,LWC V1.00 B64,2013-03-23 22:38:00,
2013-03-23 15:44:00,57.5,45.4,30.08,North,355,7.0,11.0,64,0.00,,,0.01,LWC V1.00 B64,2013-03-23 22:44:00,
2013-03-23 15:49:00,57.6,45.9,30.09,NW,326,3.0,8.0,65,0.00,,,0.01,LWC V1.00 B64,2013-03-23 22:49:00,
2013-03-23 15:54:00,57.7,45.2,30.09,North,10,6.0,12.0,63,0.00,,,0.01,LWC V1.00 B64,2013-03-23 22:54:00,
2013-03-23 15:59:00,58.0,44.6,30.09,North,355,11.0,14.0,61,0.00,,,0.01,LWC V1.00 B64,2013-03-23 22:59:00,
2013-03-23 16:04:00,58.2,44.8,30.09,NNW,348,6.0,12.0,61,0.00,,,0.01,LWC V1.00 B64,2013-03-23 23:04:00,
2013-03-23 16:09:00,58.5,45.9,30.08,NNW,346,6.0,10.0,63,0.00,,,0.01,LWC V1.00 B64,2013-03-23 23:09:00,
2013-03-23 16:14:00,58.1,47.2,30.08,North,355,11.0,12.0,67,0.00,,,0.01,LWC V1.00 B64,2013-03-23 23:14:00,
2013-03-23 16:19:00,57.4,46.5,30.08,NW,322,10.0,13.0,67,0.00,,,0.01,LWC V1.00 B64,2013-03-23 23:19:00,
2013-03-23 16:24:00,57.1,47.0,30.08,North,5,5.0,13.0,69,0.00,,,0.01,LWC V1.00 B64,2013-03-23 23:24:00,
2013-03-23 16:29:00,57.0,46.2,30.08,NNW,335,11.0,16.0,67,0.00,,,0.01,LWC V1.00 B64,2013-03-23 23:29:00,
2013-03-23 16:34:00,56.4,46.4,30.08,North,355,11.0,15.0,69,0.00,,,0.01,LWC V1.00 B64,2013-03-23 23:34:00,
2013-03-23 16:39:00,56.2,46.9,30.08,North,10,11.0,12.0,71,0.00,,,0.01,LWC V1.00 B64,2013-03-23 23:39:00,
2013-03-23 16:44:00,56.4,46.7,30.08,NNW,329,6.0,12.0,70,0.00,,,0.01,LWC V1.00 B64,2013-03-23 23:44:00,
2013-03-23 16:49:00,55.6,46.0,30.08,North,355,9.0,15.0,70,0.00,,,0.01,LWC V1.00 B64,2013-03-23 23:49:00,
2013-03-23 16:54:00,55.6,46.3,30.08,NNW,346,14.0,14.0,71,0.00,,,0.01,LWC V1.00 B64,2013-03-23 23:54:00,
2013-03-23 16:59:00,55.3,46.4,30.08,NNW,346,5.0,13.0,72,0.00,,,0.01,LWC V1.00 B64,2013-03-23 23:59:00,
2013-03-23 17:04:00,55.0,46.5,30.08,NNE,33,9.0,13.0,73,0.00,,,0.01,LWC V1.00 B64,2013-03-24 00:04:00,
2013-03-23 17:09:00,54.6,46.1,30.08,NNW,336,6.0,13.0,73,0.00,,,0.01,LWC V1.00 B64,2013-03-24 00:09:00,
2013-03-23 17:14:00,54.8,46.7,30.08,NNE,32,10.0,11.0,74,0.00,,,0.01,LWC V1.00 B64,2013-03-24 00:14:00,
2013-03-23 17:19:00,54.8,46.7,30.08,North,355,7.0,14.0,74,0.00,,,0.01,LWC V1.00 B64,2013-03-24 00:19:00,
2013-03-23 17:24:00,54.3,46.5,30.08,North,9,7.0,12.0,75,0.00,,,0.01,LWC V1.00 B64,2013-03-24 00:24:00,
2013-03-23 17:29:00,54.0,46.3,30.08,NNW,347,12.0,14.0,75,0.00,,,0.01,LWC V1.00 B64,2013-03-24 00:29:00,
2013-03-23 17:34:00,53.6,46.2,30.08,NNE,33,9.0,16.0,76,0.00,,,0.01,LWC V1.00 B64,2013-03-24 00:34:00,
2013-03-23 17:39:00,53.1,45.7,30.08,North,5,11.0,16.0,76,0.00,,,0.01,LWC V1.00 B64,2013-03-24 00:39:00,
2013-03-23 17:44:00,53.0,45.6,30.08,North,9,5.0,9.0,76,0.00,,,0.01,LWC V1.00 B64,2013-03-24 00:44:00,
2013-03-23 17:49:00,52.6,45.6,30.08,North,350,4.0,16.0,77,0.00,,,0.01,LWC V1.00 B64,2013-03-24 00:49:00,
2013-03-23 17:54:00,52.6,45.3,30.08,North,350,6.0,10.0,76,0.00,,,0.01,LWC V1.00 B64,2013-03-24 00:54:00,
2013-03-23 17:59:00,52.6,45.6,30.08,NNW,348,3.0,11.0,77,0.00,,,0.01,LWC V1.00 B64,2013-03-24 00:59:00,
2013-03-23 18:04:00,52.4,45.7,30.08,North,0,6.0,9.0,78,0.00,,,0.01,LWC V1.00 B64,2013-03-24 01:04:00,
2013-03-23 18:09:00,52.4,45.4,30.08,North,0,6.0,15.0,77,0.00,,,0.01,LWC V1.00 B64,2013-03-24 01:09:00,
2013-03-23 18:14:00,52.2,45.2,30.08,NNW,329,7.0,12.0,77,0.00,,,0.01,LWC V1.00 B64,2013-03-24 01:14:00,
2013-03-23 18:19:00,52.0,45.0,30.08,North,0,4.0,12.0,77,0.00,,,0.01,LWC V1.00 B64,2013-03-24 01:19:00,
2013-03-23 18:24:00,51.8,45.2,30.08,NNW,333,12.0,12.0,78,0.00,,,0.01,LWC V1.00 B64,2013-03-24 01:24:00,
2013-03-23 18:29:00,51.7,44.7,30.09,NNW,338,9.0,11.0,77,0.00,,,0.01,LWC V1.00 B64,2013-03-24 01:29:00,
2013-03-23 18:34:00,51.5,44.5,30.09,North,355,8.0,9.0,77,0.00,,,0.01,LWC V1.00 B64,2013-03-24 01:34:00,
2013-03-23 18:39:00,51.2,44.6,30.09,North,5,10.0,10.0,78,0.00,,,0.01,LWC V1.00 B64,2013-03-24 01:39:00,
2013-03-23 18:44:00,50.7,44.1,30.09,North,350,4.0,9.0,78,0.00,,,0.01,LWC V1.00 B64,2013-03-24 01:44:00,
2013-03-23 18:49:00,50.4,44.1,30.09,North,0,3.0,7.0,79,0.00,,,0.01,LWC V1.00 B64,2013-03-24 01:49:00,
2013-03-23 18:54:00,50.3,44.0,30.09,North,0,3.0,5.0,79,0.00,,,0.01,LWC V1.00 B64,2013-03-24 01:54:00,
2013-03-23 18:59:00,50.1,43.8,30.08,NNW,345,2.0,6.0,79,0.00,,,0.01,LWC V1.00 B64,2013-03-24 01:59:00,
2013-03-23 19:04:00,49.9,44.0,30.08,North,355,1.0,5.0,80,0.00,,,0.01,LWC V1.00 B64,2013-03-24 02:04:00,
2013-03-23 19:09:00,49.7,43.8,30.08,North,355,3.0,7.0,80,0.00,,,0.01,LWC V1.00 B64,2013-03-24 02:09:00,
2013-03-23 19:14:00,49.5,43.9,30.08,North,350,0.0,4.0,81,0.00,,,0.01,LWC V1.00 B64,2013-03-24 02:14:00,
2013-03-23 19:19:00,49.3,43.7,30.08,NNW,348,2.0,4.0,81,0.00,,,0.01,LWC V1.00 B64,2013-03-24 02:19:00,
2013-03-23 19:24:00,49.1,43.5,30.08,NNW,348,5.0,5.0,81,0.00,,,0.01,LWC V1.00 B64,2013-03-24 02:24:00,
2013-03-23 19:29:00,49.0,43.7,30.08,North,0,3.0,6.0,82,0.00,,,0.01,LWC V1.00 B64,2013-03-24 02:29:00,
2013-03-23 19:34:00,48.9,43.6,30.08,NNW,340,1.0,2.0,82,0.00,,,0.01,LWC V1.00 B64,2013-03-24 02:34:00,
2013-03-23 19:39:00,48.8,43.6,30.08,NNW,342,0.0,1.0,82,0.00,,,0.01,LWC V1.00 B64,2013-03-24 02:39:00,
2013-03-23 19:44:00,48.8,43.6,30.08,NNW,342,0.0,0.0,82,0.00,,,0.01,LWC V1.00 B64,2013-03-24 02:44:00,
2013-03-23 19:49:00,48.6,43.4,30.09,NNW,341,0.0,1.0,82,0.00,,,0.01,LWC V1.00 B64,2013-03-24 02:49:00,
2013-03-23 19:54:00,48.2,43.3,30.09,NNW,342,0.0,3.0,83,0.00,,,0.01,LWC V1.00 B64,2013-03-24 02:54:00,
2013-03-23 19:59:00,48.0,43.4,30.09,NNW,342,0.0,1.0,84,0.00,,,0.01,LWC V1.00 B64,2013-03-24 02:59:00,
2013-03-23 20:04:00,47.9,43.6,30.09,NNW,341,0.0,2.0,85,0.00,,,0.01,LWC V1.00 B64,2013-03-24 03:04:00,
2013-03-23 20:09:00,47.8,43.5,30.09,NNW,341,0.0,1.0,85,0.00,,,0.01,LWC V1.00 B64,2013-03-24 03:09:00,
2013-03-23 20:14:00,47.8,43.5,30.09,NNW,341,0.0,2.0,85,0.00,,,0.01,LWC V1.00 B64,2013-03-24 03:14:00,
2013-03-23 20:19:00,47.8,43.8,30.09,NNW,341,0.0,0.0,86,0.00,,,0.01,LWC V1.00 B64,2013-03-24 03:19:00,
2013-03-23 20:24:00,47.7,43.4,30.09,NNW,341,0.0,2.0,85,0.00,,,0.01,LWC V1.00 B64,2013-03-24 03:24:00,
2013-03-23 20:29:00,47.7,43.7,30.09,NNW,341,0.0,0.0,86,0.00,,,0.01,LWC V1.00 B64,2013-03-24 03:29:00,
2013-03-23 20:34:00,47.5,43.5,30.09,NNW,341,0.0,0.0,86,0.00,,,0.01,LWC V1.00 B64,2013-03-24 03:34:00,
2013-03-23 20:39:00,47.4,43.4,30.09,NNW,341,0.0,0.0,86,0.00,,,0.01,LWC V1.00 B64,2013-03-24 03:39:00,
2013-03-23 20:44:00,47.1,43.1,30.09,NNW,341,0.0,0.0,86,0.00,,,0.01,LWC V1.00 B64,2013-03-24 03:44:00,
2013-03-23 20:49:00,46.9,42.9,30.09,NNW,341,0.0,0.0,86,0.00,,,0.01,LWC V1.00 B64,2013-03-24 03:49:00,
2013-03-23 20:54:00,46.6,42.6,30.09,NNW,342,0.0,0.0,86,0.00,,,0.01,LWC V1.00 B64,2013-03-24 03:54:00,
2013-03-23 20:59:00,46.4,42.7,30.09,NNW,341,0.0,0.0,87,0.00,,,0.01,LWC V1.00 B64,2013-03-24 03:59:00,
2013-03-23 21:00:00,46.3,42.6,30.09,NNW,341,0.0,0.0,87,0.00,,,0.01,LWC V1.00 B64,2013-03-24 04:00:00,
2013-03-23 21:02:00,46.3,42.6,30.09,NNW,342,0.0,0.0,87,0.00,,,0.01,LWC V1.00 B64,2013-03-24 04:02:00,
2013-03-23 21:03:00,46.2,42.5,30.09,NNW,342,0.0,0.0,87,0.00,,,0.01,LWC V1.00 B64,2013-03-24 04:03:00,
2013-03-23 21:09:00,46.0,42.3,30.09,NNW,342,0.0,1.0,87,0.00,,,0.01,LWC V1.00 B64,2013-03-24 04:09:00,
2013-03-23 21:11:00,45.9,42.5,30.09,NNW,341,0.0,1.0,88,0.00,,,0.01,LWC V1.00 B64,2013-03-24 04:11:00,
2013-03-23 21:16:00,45.8,42.5,30.09,NNW,341,0.0,0.0,88,0.00,,,0.01,LWC V1.00 B64,2013-03-24 04:16:00,
2013-03-23 21:22:00,45.6,42.3,30.10,NNW,341,0.0,0.0,88,0.00,,,0.01,LWC V1.00 B64,2013-03-24 04:22:00,
2013-03-23 21:27:00,45.4,42.1,30.10,NNW,341,0.0,0.0,88,0.00,,,0.01,LWC V1.00 B64,2013-03-24 04:27:00,
2013-03-23 21:32:00,45.3,42.0,30.10,NNW,341,0.0,0.0,88,0.00,,,0.01,LWC V1.00 B64,2013-03-24 04:32:00,
2013-03-23 21:37:00,44.9,41.9,30.10,NNW,342,0.0,0.0,89,0.00,,,0.01,LWC V1.00 B64,2013-03-24 04:37:00,
2013-03-23 21:42:00,44.8,41.8,30.10,NNW,342,0.0,0.0,89,0.00,,,0.01,LWC V1.00 B64,2013-03-24 04:42:00,
2013-03-23 21:48:00,44.7,41.7,30.10,NNW,341,0.0,0.0,89,0.00,,,0.01,LWC V1.00 B64,2013-03-24 04:48:00,
2013-03-23 21:54:00,44.6,41.6,30.10,NNW,341,0.0,0.0,89,0.00,,,0.01,LWC V1.00 B64,2013-03-24 04:54:00,
2013-03-23 21:59:00,44.5,41.5,30.10,NNW,341,0.0,0.0,89,0.00,,,0.01,LWC V1.00 B64,2013-03-24 04:59:00,
2013-03-23 22:04:00,44.3,41.6,30.10,NNW,342,0.0,0.0,90,0.00,,,0.01,LWC V1.00 B64,2013-03-24 05:04:00,
2013-03-23 22:09:00,44.1,41.4,30.10,NNW,341,0.0,0.0,90,0.00,,,0.01,LWC V1.00 B64,2013-03-24 05:09:00,
2013-03-23 22:14:00,43.9,41.2,30.10,NNW,341,0.0,0.0,90,0.00,,,0.01,LWC V1.00 B64,2013-03-24 05:14:00,
2013-03-23 22:19:00,43.8,41.1,30.10,NNW,342,0.0,0.0,90,0.00,,,0.01,LWC V1.00 B64,2013-03-24 05:19:00,
2013-03-23 22:24:00,43.6,40.9,30.10,NNW,342,0.0,0.0,90,0.00,,,0.01,LWC V1.00 B64,2013-03-24 05:24:00,
2013-03-23 22:29:00,43.4,40.7,30.10,NNW,342,0.0,0.0,90,0.00,,,0.01,LWC V1.00 B64,2013-03-24 05:29:00,
2013-03-23 22:34:00,43.3,40.9,30.10,NNW,341,0.0,0.0,91,0.00,,,0.01,LWC V1.00 B64,2013-03-24 05:34:00,
2013-03-23 22:39:00,43.1,40.7,30.10,NNW,342,0.0,0.0,91,0.00,,,0.01,LWC V1.00 B64,2013-03-24 05:39:00,
2013-03-23 22:44:00,42.9,40.5,30.10,NNW,342,0.0,0.0,91,0.00,,,0.01,LWC V1.00 B64,2013-03-24 05:44:00,
2013-03-23 22:49:00,42.8,40.4,30.10,NNW,341,0.0,0.0,91,0.00,,,0.01,LWC V1.00 B64,2013-03-24 05:49:00,
2013-03-23 22:54:00,42.7,40.3,30.10,NNW,341,0.0,0.0,91,0.00,,,0.01,LWC V1.00 B64,2013-03-24 05:54:00,
2013-03-23 22:59:00,42.7,40.3,30.10,NNW,342,0.0,0.0,91,0.00,,,0.01,LWC V1.00 B64,2013-03-24 05:59:00,
2013-03-23 23:04:00,42.6,40.4,30.10,NNW,342,0.0,0.0,92,0.00,,,0.01,LWC V1.00 B64,2013-03-24 06:04:00,
2013-03-23 23:09:00,42.5,40.3,30.11,NNW,341,0.0,0.0,92,0.00,,,0.01,LWC V1.00 B64,2013-03-24 06:09:00,
2013-03-23 23:14:00,42.4,40.2,30.10,NNW,342,0.0,0.0,92,0.00,,,0.01,LWC V1.00 B64,2013-03-24 06:14:00,
2013-03-23 23:19:00,42.4,40.2,30.11,NNW,342,0.0,0.0,92,0.00,,,0.01,LWC V1.00 B64,2013-03-24 06:19:00,
2013-03-23 23:24:00,42.3,40.1,30.11,NNW,341,0.0,0.0,92,0.00,,,0.01,LWC V1.00 B64,2013-03-24 06:24:00,
2013-03-23 23:29:00,42.0,39.8,30.11,NNW,342,0.0,0.0,92,0.00,,,0.01,LWC V1.00 B64,2013-03-24 06:29:00,
2013-03-23 23:34:00,41.8,39.6,30.11,NNW,342,0.0,0.0,92,0.00,,,0.01,LWC V1.00 B64,2013-03-24 06:34:00,
2013-03-23 23:39:00,41.8,39.6,30.11,NNW,342,0.0,0.0,92,0.00,,,0.01,LWC V1.00 B64,2013-03-24 06:39:00,
2013-03-23 23:44:00,41.7,39.5,30.10,NNW,342,0.0,0.0,92,0.00,,,0.01,LWC V1.00 B64,2013-03-24 06:44:00,
2013-03-23 23:49:00,41.6,39.5,30.10,NNW,341,0.0,0.0,92,0.00,,,0.01,LWC V1.00 B64,2013-03-24 06:49:00,
2013-03-23 23:54:00,41.6,39.7,30.10,NNW,342,0.0,1.0,93,0.00,,,0.01,LWC V1.00 B64,2013-03-24 06:54:00,
2013-03-23 23:59:00,41.6,39.7,30.10,NNW,342,0.0,0.0,93,0.00,,,0.01,LWC V1.00 B64,2013-03-24 06:59:00,